TimeCST,TemperatureF,Dew PointF,Humidity,Sea Level PressureIn,VisibilityMPH,Wind Direction,Wind SpeedMPH,Gust SpeedMPH,PrecipitationIn,Events,Conditions,WindDirDegrees,DateUTC
12:53 AM,33.1,28.0,82,30.34,10.0,Calm,Calm,-,N/A,,Clear,0,2013-02-18 06:53:00
1:53 AM,33.1,28.0,82,30.33,10.0,Calm,Calm,-,N/A,,Clear,0,2013-02-18 07:53:00
2:53 AM,32.0,27.0,82,30.32,10.0,Calm,Calm,-,N/A,,Clear,0,2013-02-18 08:53:00
3:53 AM,30.9,27.0,85,30.32,10.0,Calm,Calm,-,N/A,,Clear,0,2013-02-18 09:53:00
4:53 AM,30.0,27.0,88,30.32,10.0,Calm,Calm,-,N/A,,Clear,0,2013-02-18 10:53:00
5:53 AM,30.0,27.0,88,30.33,10.0,Calm,Calm,-,N/A,,Clear,0,2013-02-18 11:53:00
6:53 AM,32.0,28.9,88,30.35,10.0,Calm,Calm,-,N/A,,Clear,0,2013-02-18 12:53:00
8:53 AM,48.9,33.1,54,30.37,10.0,SE,5.8,-,N/A,,Clear,130,2013-02-18 14:53:00
9:53 AM,54.0,26.1,34,30.36,10.0,SSE,9.2,-,N/A,,Clear,150,2013-02-18 15:53:00
10:53 AM,55.9,26.1,32,30.36,10.0,Variable,6.9,18.4,N/A,,Clear,0,2013-02-18 16:53:00
11:53 AM,57.9,27.0,31,30.33,10.0,South,6.9,-,N/A,,Clear,180,2013-02-18 17:53:00
12:53 PM,60.1,25.0,26,30.30,10.0,SE,10.4,17.3,N/A,,Clear,140,2013-02-18 18:53:00
1:53 PM,61.0,24.1,24,30.28,10.0,SSE,9.2,-,N/A,,Clear,150,2013-02-18 19:53:00
2:53 PM,62.1,25.0,24,30.26,10.0,South,9.2,17.3,N/A,,Clear,180,2013-02-18 20:53:00
3:53 PM,61.0,24.1,24,30.25,10.0,SSE,10.4,-,N/A,,Clear,160,2013-02-18 21:53:00
4:53 PM,57.9,24.1,27,30.23,10.0,SSE,8.1,-,N/A,,Clear,150,2013-02-18 22:53:00
5:53 PM,54.0,19.0,25,30.24,10.0,SSE,5.8,-,N/A,,Clear,150,2013-02-18 23:53:00
6:53 PM,51.1,19.0,28,30.23,10.0,SSE,6.9,-,N/A,,Partly Cloudy,160,2013-02-19 00:53:00
7:53 PM,48.9,21.0,33,30.22,10.0,SSE,6.9,-,N/A,,Scattered Clouds,160,2013-02-19 01:53:00
8:53 PM,46.9,27.0,46,30.21,10.0,South,8.1,-,N/A,,Partly Cloudy,180,2013-02-19 02:53:00
9:53 PM,46.0,30.9,56,30.21,10.0,South,4.6,-,N/A,,Clear,170,2013-02-19 03:53:00
10:53 PM,46.0,30.9,56,30.17,10.0,SSE,5.8,-,N/A,,Clear,160,2013-02-19 04:53:00
11:53 PM,45.0,32.0,60,30.15,10.0,SE,4.6,-,N/A,,Clear,140,2013-02-19 05:53:00